Wetbulb
35.17 36.12 36.42 35.77 36.17 37.21 35.57 37.23 32.16 35.55 35.70 41.58 45.65 47.65 49.81 51.03 51.77 51.61 51.12 51.98 53.57 53.94 55.24 56.07 56.10 57.71 59.47 62.56 65.31 65.81 65.43 65.22 65.83 67.49 68.76 69.43 70.61 71.09 70.89 70.44 69.49 69.12 68.80 67.99
31.49 35.90 36.30 33.61 36.02 36.11 37.66 38.20 38.12 38.68 37.08 45.06 46.89 48.99 48.37 49.84 50.49 50.65 51.30 51.97 52.71 53.88 54.09 54.54 55.41 55.79 57.28 60.45 63.54 65.59 65.43 65.61 66.59 66.38 67.44 68.24 68.78 68.43 66.68 65.93 66.65 66.24 64.34 63.36
27.27 33.56 33.39 28.94 34.07 36.19 37.24 38.97 38.69 34.60 40.99 45.53 44.55 45.78 47.47 48.20 49.33 49.72 51.10 52.08 52.65 52.94 53.61 54.85 55.37 55.73 56.92 58.33 61.58 63.95 64.88 64.81 66.06 65.29 64.58 64.90 65.75 65.33 64.08 63.81 62.87 62.24 62.25 60.30
27.99 30.15 21.34 34.57 40.38 40.09 38.41 39.65 41.29 41.56 43.22 44.08 44.65 45.99 47.36 48.43 48.19 48.56 50.44 51.73 52.68 52.83 53.14 54.60 54.06 54.19 55.36 56.34 58.55 61.79 63.13 64.26 63.73 63.87 64.44 64.63 63.93 63.16 62.10 60.83 59.21 58.81 56.63 56.19
25.32 26.00 30.83 34.19 37.50 37.60 36.85 36.92 42.19 41.82 43.41 44.33 45.68 46.25 46.09 48.56 49.88 49.90 50.07 51.03 52.36 53.87 55.08 53.94 52.17 53.05 54.55 55.61 57.58 59.77 60.94 62.52 64.09 63.24 62.33 61.83 62.03 62.19 61.48 59.86 57.72 55.33 54.99 53.32
28.24 22.20 20.88 33.46 39.38 41.95 40.97 31.58 41.93 42.41 42.36 43.01 44.88 39.87 43.34 48.19 49.39 49.81 50.54 51.61 52.77 54.21 53.11 52.75 52.74 53.00 52.74 54.22 55.22 57.30 59.71 61.47 63.19 63.88 61.36 60.58 61.02 59.66 58.83 57.68 53.59 51.80 50.25 49.38
28.01 25.52 30.04 38.12 40.39 41.68 28.79 33.19 42.83 42.79 42.85 43.27 42.05 44.38 47.35 49.10 49.10 49.91 50.49 50.79 51.96 51.77 51.21 51.53 52.38 53.24 51.64 52.73 53.18 55.77 58.77 61.19 62.20 62.84 62.70 61.62 61.11 58.07 56.09 52.55 49.18 48.14 45.90 44.65
29.25 25.96 24.11 40.66 40.52 34.30 38.27 40.85 42.54 43.46 44.29 44.02 45.18 46.00 46.83 47.55 47.89 48.37 48.89 49.88 50.84 50.86 50.55 51.80 52.94 52.39 51.38 51.22 53.41 54.19 56.73 58.89 60.53 61.89 60.25 59.37 57.26 55.53 53.34 51.03 46.08 43.30 40.85 39.19
31.10 31.76 40.30 41.60 38.84 41.89 42.68 42.40 42.80 43.17 43.73 43.71 43.57 44.19 45.90 46.59 47.38 47.90 48.71 49.32 50.26 50.04 50.02 50.95 52.27 51.82 50.56 51.59 52.16 53.40 54.50 56.74 59.25 60.53 58.28 56.71 54.89 52.53 49.97 49.22 45.47 41.60 41.34 41.10
31.38 36.00 38.26 39.03 41.14 42.59 42.79 41.68 42.10 42.54 42.65 43.13 41.82 43.22 44.11 45.20 46.41 47.03 48.29 48.89 49.65 49.39 49.27 49.58 51.57 51.60 51.45 51.19 52.14 53.01 53.57 55.37 57.76 57.37 54.28 54.22 53.38 51.54 50.10 47.49 45.00 42.29 41.04 40.52
33.07 36.50 38.00 39.15 40.65 41.53 41.03 41.69 41.42 42.14 42.09 41.61 41.83 41.79 42.76 43.66 45.08 45.59 46.70 48.06 49.04 48.82 49.11 49.80 50.78 50.73 51.01 50.57 51.83 52.33 53.50 54.57 56.15 54.34 51.46 51.51 51.04 49.92 49.43 49.58 47.02 43.92 43.27 41.68
31.32 37.03 36.54 37.85 40.63 40.85 39.59 39.87 40.37 40.32 40.07 40.93 41.08 40.26 41.65 42.24 44.62 44.73 45.26 46.72 47.00 48.40 49.19 49.43 49.92 50.03 50.42 51.37 52.12 52.47 52.18 53.37 51.60 49.64 50.12 48.28 42.14 38.54 35.15 38.64 39.20 40.65 40.54 42.27
35.62 39.02 38.37 39.83 40.41 40.44 37.94 38.46 39.45 39.71 39.83 37.73 39.04 39.28 39.95 40.36 42.11 43.29 44.32 45.06 45.50 47.34 48.38 49.12 49.30 49.16 50.25 51.54 52.53 51.92 51.93 50.35 46.89 45.41 44.56 42.41 41.11 39.96 34.90 34.76 35.00 35.49 36.09 36.60
38.98 39.12 36.56 38.36 37.12 37.89 38.32 39.49 39.74 39.85 39.67 38.79 37.52 37.17 37.05 36.73 38.79 40.46 42.39 44.12 45.62 46.50 47.30 47.96 48.20 48.37 50.20 51.29 51.30 51.56 51.69 39.38 45.16 44.31 42.47 41.06 40.89 39.06 37.16 36.01 34.68 34.70 35.42 36.24
38.30 38.79 37.63 37.92 38.54 37.45 38.08 38.35 37.42 36.20 37.07 36.45 36.53 35.69 35.39 34.91 35.12 36.55 39.95 41.76 43.91 45.70 46.71 47.69 48.19 48.38 49.88 51.02 50.36 49.91 47.81 43.55 43.59 42.01 40.73 39.78 38.99 37.75 37.43 36.57 35.53 34.44 34.21 34.27
37.81 37.51 37.07 36.05 36.13 36.13 35.35 35.53 35.79 35.30 36.04 35.23 34.38 34.41 34.66 34.94 35.20 36.08 36.52 38.88 39.36 43.19 46.14 46.35 47.68 48.76 50.52 49.84 48.42 46.04 42.74 37.67 38.45 39.20 37.81 37.52 37.31 36.22 35.20 34.41 34.06 34.14 33.35 33.02
34.67 33.44 34.13 33.52 33.98 33.66 32.87 34.25 34.50 34.67 34.53 34.04 33.76 34.04 34.33 34.27 34.08 34.41 35.13 36.95 39.91 44.65 46.96 47.21 47.68 48.71 46.54 45.85 43.08 39.61 37.66 36.59 35.97 37.00 36.54 35.97 35.42 34.68 34.06 33.61 32.65 33.11 32.44 33.40
37.77 37.54 36.64 34.83 33.05 31.92 31.66 32.38 32.78 32.87 32.65 33.61 33.62 33.49 32.63 32.14 31.03 32.95 35.24 38.18 39.27 39.40 45.44 46.31 43.23 41.67 41.06 40.15 38.84 37.71 36.82 36.45 36.37 35.83 35.38 34.81 34.52 34.45 33.47 33.20 32.38 32.56 31.89 31.65
36.32 35.43 34.82 33.09 32.19 31.27 32.18 31.61 32.13 32.50 33.55 32.87 32.36 32.33 32.50 32.04 31.17 33.16 34.83 34.29 33.95 33.23 34.31 36.50 33.46 36.67 36.29 35.10 37.00 37.00 36.26 35.03 34.85 34.81 34.13 33.42 33.43 33.64 32.93 32.05 31.76 31.50 30.99 31.51
33.82 33.06 32.57 32.04 32.85 32.18 32.11 32.59 33.26 32.87 33.08 32.68 32.65 32.42 32.15 31.83 31.94 31.59 31.34 30.07 30.91 31.71 33.45 33.85 34.23 33.37 33.13 32.95 33.37 33.75 33.16 32.65 33.05 33.37 33.16 33.10 33.14 32.13 32.10 31.89 31.85 31.82 31.95 32.60
31.98 31.50 31.37 30.93 31.70 32.87 32.50 32.63 32.54 31.46 32.13 32.31 31.57 31.30 31.76 32.19 32.83 32.45 32.01 30.50 31.41 32.28 32.60 32.84 33.63 33.79 34.88 35.09 35.51 33.52 32.29 32.12 31.94 31.82 31.94 31.92 31.73 32.00 31.94 31.95 31.86 32.31 32.31 33.21
32.12 31.28 31.25 31.81 31.58 31.64 33.82 33.49 32.94 32.00 31.46 31.02 31.38 31.53 31.95 30.98 31.43 33.14 32.09 31.53 33.28 33.11 34.60 34.57 34.33 33.52 34.22 34.24 35.04 33.40 32.29 32.10 32.60 32.89 32.42 31.80 31.83 31.59 31.59 31.86 31.76 31.77 32.13 32.50
32.74 31.49 30.46 30.56 30.99 31.83 33.59 32.75 32.22 31.76 30.94 30.38 29.81 30.57 31.01 31.67 30.62 29.44 28.80 31.23 33.10 32.83 33.73 33.45 32.23 32.05 32.24 33.76 32.86 32.30 31.94 31.95 32.13 32.10 32.31 31.94 31.86 31.95 32.38 32.68 32.86 32.86 31.77 32.72
32.06 31.67 31.36 31.21 31.51 31.66 31.08 32.71 32.25 32.11 31.60 30.76 30.50 30.46 30.36 30.20 31.67 31.98 31.64 30.65 31.17 31.26 31.46 32.04 32.00 31.79 32.80 33.04 32.50 32.13 32.50 32.50 32.50 32.31 32.26 31.96 32.13 32.50 32.50 32.50 32.50 33.04 31.71 32.06
32.83 32.28 32.22 32.15 31.08 30.28 30.38 31.99 32.83 32.03 32.20 31.79 31.04 30.94 30.57 31.05 29.74 31.44 32.52 32.17 31.17 31.99 32.04 31.52 31.27 31.77 32.68 32.68 32.68 32.50 32.68 32.86 32.50 32.57 32.16 31.95 31.77 31.27 31.12 30.94 30.34 30.20 29.89 29.92
32.45 32.57 32.31 30.68 31.08 31.18 31.04 31.48 30.69 29.83 30.64 30.49 30.01 29.84 30.21 31.32 31.13 31.20 31.43 32.02 32.29 31.75 31.82 31.59 31.95 32.31 32.68 33.40 32.86 32.68 32.68 32.43 33.46 33.19 32.53 31.63 30.79 30.32 29.68 29.46 29.34 29.83 29.77 29.94
30.49 29.53 30.32 29.80 29.76 28.70 28.05 27.23 27.76 26.33 26.41 27.95 27.55 27.91 28.46 29.17 29.27 29.58 29.36 30.51 30.95 31.36 31.95 32.13 32.68 32.44 33.27 33.58 33.95 34.08 33.75 33.46 32.43 32.92 32.66 31.85 30.82 30.75 29.88 29.84 29.90 30.29 31.16 31.06
MSLP
1010.38 1009.19 1008.12 1007.53 1007.29 1006.91 1006.31 1006.18 1005.80 1004.69 1004.00 1002.25 1001.39 1000.45 999.74 999.17 999.01 999.26 999.49 999.29 998.92 998.89 998.70 998.54 998.49 998.18 997.88 997.80 998.01 998.29 998.03 998.05 997.83 997.96 998.32 998.76 998.91 999.26 999.86 1000.60 1001.29 1002.02 1002.88 1003.69
1010.50 1009.49 1008.50 1007.69 1006.98 1006.80 1006.10 1005.23 1004.67 1004.00 1003.33 1002.76 1001.24 1000.99 1000.05 999.73 999.76 999.39 999.06 998.95 998.96 998.76 998.57 998.45 998.37 998.32 997.99 997.80 997.68 997.99 997.85 998.08 998.01 998.19 998.30 998.60 999.16 999.52 1000.11 1000.71 1001.35 1002.14 1003.10 1003.75
1009.95 1009.15 1008.04 1007.17 1005.85 1005.09 1004.52 1004.20 1003.70 1002.66 1002.00 1001.36 1000.35 999.82 999.36 999.17 998.98 998.70 998.86 998.73 998.35 998.22 998.41 998.30 998.26 998.27 998.03 997.76 997.51 997.72 997.76 997.84 997.94 998.38 998.69 998.88 999.08 999.75 1000.11 1000.71 1001.29 1002.08 1003.19 1004.08
1010.21 1009.51 1007.62 1005.21 1004.31 1003.34 1002.71 1002.19 1001.88 1001.69 1001.30 1000.72 999.98 999.17 998.95 998.80 998.83 998.81 998.51 998.26 997.98 997.69 997.75 998.16 998.31 998.21 998.21 997.84 997.40 997.40 997.27 997.35 997.62 997.98 998.21 998.94 999.36 999.94 1000.24 1000.64 1001.34 1002.31 1003.50 1004.42
1010.62 1008.60 1006.64 1004.92 1003.43 1002.88 1002.16 1001.25 1001.19 1000.87 1000.44 999.72 999.43 998.66 997.95 998.43 998.64 998.57 998.65 998.20 997.91 997.84 997.85 998.14 998.13 998.10 997.96 997.68 997.15 996.88 996.75 996.76 997.06 997.59 998.17 998.57 999.00 999.69 1000.35 1001.12 1001.50 1002.52 1003.61 1004.52
1010.32 1008.59 1005.90 1003.60 1002.28 1002.25 1002.10 1001.24 1000.83 1000.64 1000.15 999.73 999.56 998.75 998.02 998.06 998.01 998.24 998.28 997.99 997.79 997.96 997.74 997.74 997.57 997.64 997.50 997.42 997.15 996.43 996.37 996.43 996.68 996.97 997.70 998.25 998.87 999.60 1000.12 1001.28 1001.99 1003.00 1004.03 1004.41
1009.01 1007.73 1005.44 1003.51 1002.83 1002.79 1002.74 1001.53 1000.64 1000.73 1000.45 999.99 999.53 999.07 998.55 998.43 998.43 998.30 997.97 997.80 997.47 997.30 997.06 997.00 997.02 997.08 996.81 996.68 996.45 996.70 996.73 996.43 996.33 996.57 996.98 997.64 998.50 999.31 1000.08 1001.10 1002.19 1003.38 1004.46 1005.35
1007.79 1006.42 1004.76 1004.23 1002.75 1003.63 1003.96 1003.45 1003.06 1002.32 1001.66 1001.01 1000.33 999.63 998.99 998.13 998.25 997.83 997.37 996.92 997.07 996.73 996.12 996.06 996.42 996.52 996.25 995.87 996.04 996.18 996.20 996.25 996.17 996.25 996.70 997.35 998.11 999.03 999.77 1000.57 1001.84 1003.25 1004.42 1005.72
1007.40 1005.46 1004.11 1004.12 1004.61 1004.64 1003.95 1003.49 1003.78 1003.34 1003.10 1002.61 1001.46 1000.44 999.42 997.90 997.64 997.45 997.07 996.55 996.13 995.86 995.29 995.16 995.46 995.64 995.48 995.54 995.80 995.75 995.68 995.59 995.71 996.08 996.34 997.10 997.86 998.67 999.78 1000.44 1001.62 1002.95 1003.96 1005.25
1007.42 1005.07 1004.65 1004.55 1004.38 1004.35 1004.70 1004.64 1004.54 1003.82 1003.07 1002.69 1001.80 1000.76 999.62 998.35 997.26 997.06 996.39 995.78 995.44 995.12 994.64 994.31 994.64 994.83 994.93 995.09 995.36 995.29 995.17 995.13 995.09 995.84 996.37 996.86 997.62 998.36 999.18 999.96 1000.86 1002.04 1003.35 1004.53
1005.82 1005.02 1004.98 1004.51 1004.48 1004.75 1005.08 1004.98 1004.59 1003.83 1003.41 1002.90 1002.40 1000.64 999.86 998.35 996.99 996.36 995.96 995.37 994.68 994.22 994.04 993.65 993.92 993.92 994.15 994.36 994.58 994.73 994.79 994.80 994.85 995.77 996.44 996.91 997.67 998.25 998.44 999.10 999.37 1000.52 1002.09 1003.13
1005.33 1005.46 1005.25 1004.96 1005.17 1005.61 1005.19 1004.74 1004.75 1003.97 1002.92 1002.41 1002.31 1000.87 999.94 998.57 996.90 995.93 995.40 994.78 994.35 993.66 993.27 993.24 993.17 992.98 993.19 993.56 994.06 994.36 994.43 994.78 995.30 995.71 996.45 996.91 997.94 998.97 999.52 999.39 999.74 1000.24 1000.85 1001.90
1005.80 1005.85 1005.96 1005.93 1005.75 1005.54 1005.61 1005.28 1004.76 1004.15 1003.28 1002.15 1001.58 1001.16 999.85 998.71 996.91 995.49 995.09 994.42 993.68 992.40 992.21 992.43 992.32 992.21 992.52 992.98 993.51 993.87 993.98 994.82 995.43 995.85 996.29 997.18 997.91 998.69 999.95 1000.86 1000.93 1001.54 1002.12 1002.60
1005.66 1005.83 1005.69 1005.49 1005.39 1006.08 1005.87 1005.41 1004.67 1003.81 1003.03 1002.12 1001.20 1000.71 999.57 998.24 996.61 995.33 993.89 993.23 993.05 992.45 991.72 991.54 991.41 991.34 991.91 992.42 992.86 993.24 993.51 994.66 995.30 995.65 996.29 996.71 997.72 998.28 999.15 999.93 1001.36 1002.75 1003.57 1003.73
1005.56 1005.93 1006.00 1006.14 1006.13 1006.13 1006.03 1005.49 1004.64 1003.62 1002.57 1001.55 1000.92 999.99 999.02 997.45 996.02 994.21 993.25 992.80 992.24 991.54 990.76 990.30 990.26 990.37 991.31 991.75 992.35 992.72 993.30 994.08 995.00 995.52 996.22 996.75 997.49 998.61 999.11 1000.01 1001.16 1002.12 1003.56 1004.82
1005.79 1006.11 1006.26 1006.43 1006.54 1006.42 1006.00 1005.56 1004.77 1003.57 1002.53 1001.46 1000.35 999.11 997.70 996.28 994.66 993.10 992.06 991.63 991.47 989.96 989.39 989.55 989.39 989.57 990.61 991.63 992.05 992.72 993.40 993.88 994.91 995.58 996.29 997.19 997.74 998.66 999.53 1000.25 1001.33 1002.49 1003.57 1004.74
1006.13 1006.27 1006.45 1006.77 1006.78 1006.43 1006.07 1005.64 1005.03 1004.00 1002.54 1001.11 999.73 998.20 996.38 994.57 992.81 991.17 990.01 989.69 989.30 989.07 988.84 988.74 989.07 990.04 991.27 991.87 992.30 993.02 993.67 994.28 995.23 995.94 996.69 997.42 998.11 999.08 999.85 1000.59 1001.68 1003.11 1004.29 1005.37
1006.25 1006.37 1006.74 1007.10 1007.03 1006.69 1006.14 1005.62 1004.86 1003.90 1002.68 1001.33 999.79 997.85 995.86 993.56 990.94 988.68 988.11 987.67 988.20 988.52 988.71 988.95 990.36 991.26 991.83 992.29 992.73 993.27 994.00 994.72 995.69 996.17 996.95 998.12 998.61 999.85 1000.32 1001.27 1002.36 1003.33 1004.63 1005.96
1006.60 1006.89 1007.27 1007.43 1007.35 1007.03 1006.41 1005.71 1004.95 1004.02 1002.79 1001.27 999.68 997.87 996.04 993.94 991.50 989.35 988.48 988.61 989.15 989.95 990.89 991.13 991.67 991.98 992.65 993.30 993.64 994.23 995.07 995.86 996.54 996.97 997.55 998.23 999.05 1000.59 1001.13 1002.15 1003.33 1004.77 1005.35 1005.80
1007.11 1007.56 1007.67 1007.65 1007.42 1007.06 1006.46 1005.86 1005.15 1004.19 1003.15 1001.85 1000.29 998.58 996.90 995.47 993.97 992.67 991.79 991.99 992.39 992.49 992.35 992.40 992.88 993.41 994.04 994.35 994.76 995.53 996.40 997.42 998.29 998.17 998.68 998.63 999.98 1001.27 1001.88 1002.77 1003.76 1004.90 1005.53 1006.32
1007.39 1007.76 1007.89 1007.86 1007.60 1007.22 1006.81 1006.17 1005.53 1004.55 1003.68 1002.65 1001.50 1000.18 998.90 997.52 996.26 995.33 994.60 994.59 995.12 994.77 994.47 994.45 994.71 995.02 995.27 995.50 995.84 996.71 997.23 998.48 999.78 999.97 1000.08 1000.31 1001.51 1002.18 1003.07 1003.75 1005.02 1005.18 1005.79 1007.07
1007.41 1007.61 1007.88 1007.86 1007.61 1007.16 1006.90 1006.44 1005.91 1005.19 1004.31 1003.49 1002.82 1001.77 1000.69 999.66 998.66 997.95 997.60 997.40 997.20 996.83 996.59 996.57 996.65 996.70 996.65 996.85 997.35 998.03 998.56 999.85 1001.67 1001.30 1001.11 1002.81 1002.24 1002.56 1003.53 1005.10 1005.52 1005.98 1006.80 1007.89
1007.46 1007.57 1007.67 1007.69 1007.50 1007.15 1006.72 1006.53 1006.20 1005.69 1005.26 1004.74 1004.02 1003.29 1002.56 1001.96 1001.31 1000.57 1000.08 999.92 999.51 999.15 998.94 998.82 998.70 998.54 998.69 999.08 999.21 999.71 1000.41 1001.83 1002.49 1003.19 1003.56 1003.42 1003.11 1003.45 1005.11 1006.31 1006.55 1006.70 1007.31 1007.20
1007.43 1007.58 1007.57 1007.55 1007.43 1007.17 1006.85 1006.58 1006.42 1006.07 1005.88 1005.62 1005.18 1004.66 1003.92 1003.15 1002.61 1002.31 1002.02 1001.55 1001.10 1000.85 1000.74 1000.61 1000.25 1000.09 1000.26 1000.53 1000.53 1000.78 1001.89 1002.95 1004.02 1004.37 1004.74 1004.18 1004.09 1005.05 1006.13 1006.63 1006.98 1007.19 1007.21 1007.21
1007.23 1007.41 1007.41 1007.26 1007.23 1007.26 1007.25 1007.01 1006.63 1006.41 1006.12 1005.96 1005.86 1005.60 1005.24 1004.84 1004.50 1004.05 1003.30 1002.89 1002.51 1002.27 1002.10 1002.12 1001.97 1002.04 1002.22 1002.40 1002.71 1003.20 1003.74 1004.24 1004.49 1004.62 1004.73 1004.86 1005.27 1005.94 1006.56 1006.97 1006.94 1007.12 1007.37 1007.73
1007.07 1007.22 1007.46 1007.53 1007.48 1007.47 1007.55 1007.48 1007.24 1007.34 1007.02 1006.71 1006.70 1006.78 1006.43 1005.92 1005.43 1005.11 1004.78 1004.39 1004.05 1003.78 1003.62 1003.54 1003.41 1003.34 1003.36 1003.49 1003.71 1003.96 1004.28 1004.56 1004.79 1005.03 1005.27 1005.53 1005.99 1006.35 1006.60 1006.85 1007.10 1007.34 1007.56 1007.68
1007.18 1007.58 1007.69 1007.88 1008.00 1008.08 1008.35 1008.33 1008.17 1008.29 1008.35 1008.03 1007.76 1007.72 1007.49 1007.21 1006.90 1006.40 1006.00 1005.63 1005.40 1005.16 1004.92 1004.76 1004.72 1004.63 1004.55 1004.62 1004.72 1004.89 1005.00 1005.25 1005.48 1005.68 1005.98 1006.21 1006.46 1006.66 1006.80 1007.06 1007.28 1007.44 1007.49 1007.67
Wind_Speed
16 19 17 16 15 18 18 14 9 14 18 23 22 24 25 25 19 17 17 18 16 13 12 10 10 11 11 9 8 8 9 12 14 15 16 16 17 17 16 15 14 13 14 12
8 15 16 18 15 16 19 20 21 21 19 21 26 19 22 22 20 21 22 20 18 17 16 13 11 11 10 10 8 6 9 10 11 11 12 13 14 15 13 13 14 12 9 9
18 14 13 12 21 23 24 23 20 20 19 19 21 17 18 19 21 22 21 20 20 17 15 15 10 9 10 10 9 8 10 10 10 9 11 11 11 13 13 13 10 10 10 10
13 14 16 16 16 19 22 23 23 23 21 20 20 20 21 17 15 16 18 20 20 15 11 9 9 10 10 11 9 9 11 11 11 12 12 12 11 12 10 10 11 10 9 9
9 14 17 21 21 17 17 21 17 19 24 26 24 26 22 17 18 18 18 18 15 13 8 8 9 10 11 11 11 10 11 12 12 12 13 13 15 13 11 10 10 10 10 12
11 11 14 17 21 11 14 19 25 23 24 23 23 18 16 17 13 14 14 15 13 10 10 11 11 9 10 11 12 14 11 10 11 12 13 14 11 12 10 10 8 8 8 9
16 15 13 19 21 17 12 16 17 18 18 17 17 17 21 22 19 20 20 17 16 15 15 14 12 11 11 12 15 11 11 10 11 13 14 13 12 10 11 11 10 9 9 7
11 12 14 10 11 10 15 22 22 21 19 20 20 20 21 23 20 20 21 19 19 18 17 14 11 10 12 14 12 12 11 12 11 12 9 9 13 11 13 13 13 11 12 8
7 10 19 21 12 16 18 19 19 21 18 20 22 25 26 27 25 22 21 19 17 18 19 16 13 12 13 12 11 12 13 13 13 13 10 11 13 13 11 12 11 10 10 10
15 15 18 20 21 11 9 14 17 21 23 23 25 26 28 27 25 22 21 19 18 18 20 18 14 13 13 12 11 12 14 14 12 9 9 11 9 11 11 11 11 12 12 12
23 23 22 17 6 12 18 20 19 22 23 24 24 29 28 27 28 24 23 21 20 19 18 19 16 16 14 12 11 12 14 13 8 7 10 9 8 8 11 12 15 15 13 14
16 21 18 18 15 19 22 19 18 22 24 26 23 28 28 27 26 26 25 23 23 22 21 20 19 18 16 13 11 12 12 9 5 6 8 8 8 6 15 9 8 10 25 21
19 19 15 17 20 15 17 19 19 21 23 26 25 25 29 27 29 28 26 27 26 26 23 21 20 20 16 12 10 12 12 7 5 7 8 9 8 9 10 12 20 16 14 17
20 16 19 19 15 15 16 17 21 21 22 20 22 22 24 24 28 30 29 28 26 25 24 23 21 21 17 13 12 12 12 8 9 8 8 9 9 10 10 13 14 10 13 18
10 10 13 14 13 13 14 16 18 20 21 20 19 21 21 25 28 30 28 27 26 25 25 23 21 20 18 13 13 12 8 8 8 8 8 9 10 10 10 12 12 13 13 13
10 10 11 11 11 14 16 17 17 20 20 19 20 21 22 23 25 25 26 22 21 23 23 19 19 16 12 12 11 7 8 9 9 8 9 9 10 11 11 12 13 12 11 11
8 8 7 10 12 15 16 13 15 18 20 21 23 24 23 23 22 22 21 23 22 22 18 15 11 8 7 10 11 7 7 8 11 10 9 10 11 11 12 12 12 10 9 9
7 7 7 8 10 11 13 13 14 17 18 20 21 21 20 20 22 18 15 8 7 4 2 4 9 9 8 9 9 9 9 10 9 11 11 11 12 10 11 12 11 12 11 9
4 6 7 7 9 10 11 11 13 15 17 18 20 20 20 20 20 14 13 13 13 13 6 11 10 12 11 9 9 8 9 10 9 10 11 16 13 11 11 11 11 9 9 8
7 6 7 8 10 10 11 11 13 13 15 17 20 21 20 21 18 18 19 21 15 8 12 15 16 15 15 15 15 10 10 10 8 9 8 11 12 10 11 12 11 10 8 7
4 4 5 7 7 8 9 10 11 13 15 16 18 20 20 19 20 18 18 14 14 14 15 16 12 10 11 14 15 13 13 12 10 8 10 11 10 11 10 11 8 8 8 7
2 3 3 5 6 8 8 10 12 12 14 16 16 17 18 19 18 17 18 13 11 17 11 11 11 15 13 16 12 13 12 11 6 7 9 7 8 10 9 7 8 8 7 6
2 1 1 2 5 7 8 9 9 11 12 13 15 15 13 10 11 11 11 15 9 12 10 9 13 15 15 9 10 11 12 9 7 5 5 6 7 9 8 7 7 7 7 7
4 3 1 1 3 5 6 8 8 10 9 11 12 13 13 10 10 10 8 11 14 11 10 8 10 13 11 7 9 10 9 7 6 5 6 8 8 7 6 6 6 6 6 5
5 4 2 1 2 3 5 6 6 8 9 11 13 12 14 10 8 8 9 9 13 10 9 13 13 12 8 7 7 7 7 6 5 6 6 6 6 6 6 6 6 6 5 5
6 3 1 4 3 3 3 4 5 6 7 8 9 10 10 9 9 9 9 12 11 11 9 8 8 7 7 7 7 7 7 7 6 6 5 6 5 5 5 5 6 6 5 4
5 2 3 3 3 4 4 5 5 6 7 6 7 9 9 9 10 11 13 11 10 10 9 8 8 8 7 6 6 7 6 6 5 5 4 5 5 5 5 5 4 4 3 3
Wind_Direction
258 273 269 269 257 266 254 243 239 276 283 282 285 292 300 290 297 291 281 284 283 282 293 297 309 317 322 315 304 267 242 239 228 212 210 209 202 196 189 187 186 180 179 181
271 266 264 266 259 259 257 265 267 260 262 267 271 269 272 265 274 278 277 277 281 289 286 293 302 303 315 314 308 264 245 236 226 213 207 199 199 193 179 178 173 164 160 146
273 281 276 253 239 254 252 250 256 261 260 260 271 273 268 270 263 261 261 268 279 281 284 281 285 305 302 311 309 267 243 224 213 200 203 198 189 186 177 163 142 139 148 146
276 284 260 261 262 257 250 251 247 247 260 278 278 270 265 277 293 282 268 260 262 269 282 285 310 310 308 297 288 267 254 231 217 209 202 197 188 187 161 150 145 143 142 146
253 264 278 281 268 261 267 263 259 252 244 257 260 270 270 267 272 273 283 285 283 288 281 275 303 311 307 301 285 266 254 247 232 212 214 198 195 188 170 166 150 146 153 150
243 257 264 260 265 285 287 264 261 270 279 274 271 273 281 286 303 308 293 286 275 270 277 274 289 298 299 296 291 270 262 249 242 222 211 206 189 178 155 159 133 134 137 142
233 244 259 277 287 291 264 268 293 309 317 308 291 285 290 288 292 292 291 276 270 273 288 282 283 279 284 285 282 292 281 263 240 226 211 199 185 164 151 138 126 130 124 131
236 243 255 12 356 300 342 331 319 328 325 322 308 300 295 289 291 295 289 277 269 269 272 276 265 272 277 277 294 297 282 265 243 224 204 191 170 162 154 150 141 139 131 119
283 290 311 322 316 292 317 307 307 310 305 304 302 298 299 295 295 289 283 282 273 264 271 271 256 261 265 279 293 289 285 271 254 229 193 178 172 161 154 158 151 149 149 150
302 271 280 316 303 318 327 319 317 306 305 302 299 294 290 289 289 287 284 276 271 263 268 263 252 252 263 280 283 283 279 275 257 212 188 176 174 168 164 166 160 159 157 155
279 280 291 294 286 321 315 313 311 308 308 304 300 289 286 286 285 282 280 282 277 270 266 262 260 265 266 276 275 283 285 275 242 197 186 177 176 185 178 183 174 163 169 161
278 289 303 294 312 310 302 308 313 306 308 307 303 293 292 283 281 281 278 274 269 268 255 255 258 259 265 270 272 269 272 272 205 178 180 169 150 91 45 95 117 176 162 160
284 298 303 290 287 305 305 302 302 298 299 303 298 293 291 286 280 282 277 272 265 257 253 255 256 259 265 265 256 253 257 223 186 179 168 162 158 146 123 71 83 90 107 126
283 285 279 290 307 311 298 302 301 305 299 305 297 292 284 279 281 275 271 268 267 264 256 250 248 251 255 266 246 236 242 181 184 179 173 160 162 149 143 138 135 126 118 123
285 275 284 299 302 311 304 302 308 311 313 310 304 295 287 280 275 274 273 271 270 259 253 244 238 243 249 249 235 226 199 176 187 169 163 156 144 146 140 135 135 129 125 112
304 296 297 301 311 307 311 308 308 309 315 311 310 303 295 287 278 271 267 259 256 250 247 243 242 241 241 225 221 192 174 149 152 151 141 143 140 139 134 129 128 130 127 129
296 295 311 308 311 311 313 307 308 309 315 320 318 311 302 296 285 271 260 250 234 241 241 237 227 224 183 192 164 145 133 127 138 133 136 135 134 133 131 128 121 120 119 130
298 297 321 316 314 316 315 317 316 317 318 317 320 317 319 316 306 273 260 213 206 77 236 101 112 143 143 136 132 127 128 128 137 132 127 128 120 120 114 111 114 121 120 122
21 17 5 345 337 332 323 325 325 319 323 329 335 339 345 349 0 22 61 71 85 92 72 97 93 94 87 88 101 104 110 114 120 122 120 119 109 113 110 107 109 106 117 125
51 28 11 358 356 348 340 339 336 340 340 345 345 352 1 9 14 34 49 54 41 50 77 84 85 83 86 82 84 84 84 85 92 102 99 105 111 109 106 105 113 124 134 127
74 39 9 2 353 347 345 348 347 354 350 1 359 356 359 8 25 30 43 46 33 45 59 65 72 77 84 92 89 84 78 72 69 78 89 82 100 102 108 110 126 121 124 137
114 72 11 346 348 1 355 6 9 358 7 8 7 4 7 10 13 28 35 34 33 34 44 54 58 62 66 74 79 79 73 73 77 91 97 112 112 114 102 119 128 127 128 157
167 140 75 4 349 346 4 13 5 16 9 12 10 9 10 18 15 12 13 2 22 30 39 41 50 55 59 66 77 81 78 78 74 75 103 123 105 106 122 141 141 138 150 144
195 229 276 355 355 2 6 8 13 19 27 25 20 13 12 9 24 19 17 16 22 35 44 35 52 53 56 65 75 79 85 91 102 105 109 93 98 109 121 131 134 129 130 130
207 221 234 150 83 42 22 359 14 14 14 27 28 23 17 19 21 5 21 26 31 38 39 40 44 51 58 64 78 91 98 100 99 105 99 101 106 122 135 145 141 141 138 142
190 192 109 58 58 46 27 18 31 26 7 12 27 18 18 17 14 22 24 28 40 39 43 40 37 40 51 64 69 75 84 90 90 95 103 114 127 133 143 145 144 151 150 140
154 169 160 130 80 57 40 37 38 35 21 13 19 17 20 21 23 23 24 23 27 29 35 36 38 45 55 63 76 86 91 88 91 103 113 131 139 140 141 146 149 148 140 138